Theta_e
329 324 319 321 318 316 314 304 295 292 294 290 288 290 290 295 294 292 292 292 295 295 297 299 298 300 299 297 298 296 296 297 296 292 290 295 307 310 313 315 320 322 324 323 323 328 332 339 344 344 345 344 344 345 345 345 346 345 345 345 345 346 346 346 345 345 344 343 344 344 344 343 343 343 343 342 342 342 342 342 342 342 343 344 345 345 345 345 344 344 342 341 338 336 337 338 338
325 319 319 321 317 315 308 298 290 289 285 283 289 288 290 292 292 292 291 291 292 299 296 298 298 300 299 299 298 299 300 300 296 299 300 304 307 310 311 319 320 322 322 321 323 323 325 329 342 343 344 344 344 343 343 343 343 343 343 343 343 344 343 342 343 342 342 342 342 343 342 342 341 341 340 340 339 339 340 340 340 340 340 342 342 343 342 341 341 340 338 336 333 332 332 332 333
321 319 318 316 314 310 305 300 295 283 287 283 285 290 292 292 291 290 292 293 291 292 296 297 297 298 300 299 300 299 296 301 301 301 301 305 309 312 312 319 321 321 321 319 322 322 322 328 339 342 343 343 343 342 342 342 342 341 342 342 342 341 340 341 341 341 341 340 341 340 339 339 339 338 338 337 337 337 337 337 337 337 338 338 339 339 337 336 336 334 333 332 331 330 329 329 330
315 318 315 311 310 301 298 293 286 286 286 282 284 290 290 292 291 293 291 292 290 296 296 299 299 298 300 296 298 299 297 300 302 303 301 305 309 312 315 319 321 321 319 320 320 320 321 329 337 339 339 340 340 340 341 340 340 340 340 340 340 340 339 339 339 338 338 338 339 338 338 338 337 337 336 335 335 334 333 333 334 334 335 335 334 334 334 333 333 333 331 330 330 328 328 329 329
316 318 315 309 305 301 296 293 289 285 287 284 285 289 291 291 292 291 294 294 294 295 295 297 297 298 299 299 298 298 296 300 302 303 302 305 306 312 315 318 320 320 319 319 320 321 321 333 336 338 338 338 338 338 338 338 338 338 337 336 336 336 336 336 335 335 335 336 336 336 336 336 334 334 333 332 332 331 330 330 331 332 332 333 333 332 332 332 330 330 329 329 328 328 328 328 328
312 314 312 313 308 306 297 293 290 288 292 290 290 291 291 294 294 293 293 292 294 295 295 295 297 297 297 298 298 297 298 302 302 303 302 305 306 312 314 319 319 319 318 318 318 319 320 332 335 336 335 336 337 335 336 335 336 336 336 336 336 335 335 335 334 333 333 333 334 333 333 333 332 332 331 330 330 329 329 328 328 329 330 330 330 330 330 330 329 328 328 328 327 327 326 325 325
314 307 304 304 303 299 292 287 287 287 295 293 292 295 298 297 295 295 294 296 298 296 294 297 295 295 295 295 300 302 303 304 303 304 305 305 308 311 316 319 318 318 317 317 317 318 319 333 334 334 334 335 335 334 334 334 335 336 336 336 336 335 335 334 334 333 333 333 333 333 332 332 330 329 329 328 328 327 327 327 327 327 328 328 328 328 328 329 328 327 327 327 327 326 324 323 323
313 308 303 296 293 294 291 288 289 289 291 296 295 295 298 296 294 294 294 295 295 297 295 294 294 295 290 299 295 297 302 304 304 304 304 306 308 311 317 318 317 316 316 316 316 317 324 332 332 333 333 334 334 334 334 335 335 335 335 335 335 335 334 334 333 333 333 332 332 331 330 329 328 328 328 327 327 327 327 327 327 327 326 326 326 327 326 327 326 326 326 325 325 324 323 322 322
307 306 301 296 294 289 286 288 289 290 292 292 294 295 303 298 295 294 293 294 294 294 294 296 294 293 289 296 295 296 298 302 302 305 305 307 308 312 317 318 317 315 315 316 316 316 318 331 333 332 332 333 333 334 334 335 335 335 335 334 334 334 333 333 332 332 331 330 329 329 328 327 327 326 326 326 326 326 325 325 325 325 325 325 325 325 325 325 325 325 325 324 323 322 322 321 321
305 303 295 293 288 290 283 286 288 290 291 293 293 297 296 295 294 295 294 294 294 294 294 295 293 293 292 293 294 297 300 301 303 303 304 307 308 312 315 317 316 315 314 315 315 317 317 326 331 332 331 331 332 333 334 334 334 334 333 333 333 333 332 332 330 329 329 329 328 328 327 327 327 326 326 326 326 326 325 324 324 324 324 324 324 324 324 324 324 324 324 323 321 321 321 320 320
300 298 295 295 289 286 287 285 285 290 289 291 294 297 298 296 296 293 293 293 294 294 295 296 297 294 294 294 296 297 300 301 302 302 304 307 307 311 314 314 314 314 314 313 314 316 316 318 326 330 331 331 331 332 332 332 332 332 332 332 332 331 331 329 328 327 327 327 326 326 326 327 326 326 325 324 324 325 325 324 323 323 323 323 322 322 322 322 322 322 321 320 320 320 320 319 318
296 296 294 287 286 286 286 285 287 291 292 293 294 295 294 296 295 295 294 295 293 292 294 296 297 294 294 292 291 297 297 299 301 303 304 306 306 308 312 311 312 313 313 313 313 314 314 315 318 325 329 330 330 331 330 330 331 330 330 330 330 329 329 328 326 325 324 324 325 325 325 326 326 325 324 323 323 323 323 323 322 321 321 322 321 321 321 320 320 319 319 318 318 318 318 318 317
297 293 288 288 284 287 285 287 289 291 290 290 293 295 294 296 297 297 294 294 293 295 294 297 296 297 294 293 292 296 298 300 300 303 304 304 303 306 309 309 310 310 311 311 313 313 312 313 316 321 322 327 328 329 329 329 329 328 328 328 327 327 327 326 325 324 324 323 323 324 324 324 324 323 322 322 321 321 321 321 321 321 321 320 320 320 320 318 318 317 316 316 316 316 317 316 315
296 293 293 289 285 285 288 287 285 289 287 289 291 293 296 295 295 294 292 293 292 293 295 296 297 297 294 295 293 294 298 300 299 302 302 300 301 306 308 307 307 308 308 309 312 311 311 311 313 313 316 320 317 323 325 327 327 327 326 326 325 326 325 325 324 324 323 322 321 319 319 319 320 321 320 320 320 319 319 319 319 320 320 319 319 319 318 317 316 315 314 314 314 314 314 314 314
302 295 289 288 286 284 284 290 287 285 288 290 293 294 295 297 294 291 296 294 295 295 299 298 298 297 292 296 294 294 299 299 299 300 299 299 301 304 304 305 306 305 306 307 309 309 310 309 311 310 311 311 313 315 313 321 325 325 325 325 325 325 325 324 323 323 322 320 319 317 316 316 317 318 318 317 316 317 317 317 318 318 319 319 318 317 316 315 314 314 313 312 311 311 312 312 311
299 292 290 292 285 285 285 287 287 289 290 291 292 292 294 295 293 296 295 296 296 297 297 298 299 297 296 296 296 298 298 299 298 298 298 298 299 301 302 303 304 304 304 307 308 308 309 308 307 308 308 308 309 310 310 311 321 322 324 323 323 323 323 322 322 321 319 317 316 315 313 310 309 309 313 312 313 314 314 314 316 317 317 317 316 315 314 313 313 312 311 310 308 308 308 308 308
296 294 291 283 287 285 285 287 287 288 289 289 291 294 296 295 295 295 295 296 297 295 297 295 299 298 295 295 296 296 299 300 299 297 297 297 298 298 300 300 301 302 305 305 307 307 307 307 306 306 305 306 307 307 308 308 314 320 320 321 321 321 321 320 319 316 313 312 310 309 306 299 298 298 299 301 308 305 311 312 313 314 314 314 314 314 313 312 311 311 310 308 307 305 303 302 303
300 293 285 284 285 285 287 289 290 293 293 293 292 293 294 293 292 297 296 296 294 293 295 295 296 294 296 295 296 299 298 297 296 297 296 296 297 297 299 300 301 304 303 304 305 306 306 306 306 306 305 304 305 306 307 306 309 316 309 311 310 315 317 316 310 304 306 301 307 301 296 298 296 297 300 305 301 304 307 310 310 311 312 311 311 312 311 310 309 309 308 307 305 303 300 291 292
296 287 285 287 285 290 292 291 291 292 292 291 292 290 293 295 294 295 296 291 292 294 293 293 296 296 296 295 296 297 297 295 296 297 296 295 296 297 300 300 300 301 302 303 304 305 306 306 305 305 304 303 303 303 305 306 305 306 304 305 307 312 309 305 302 302 296 296 295 295 296 296 295 296 297 301 303 307 306 309 307 308 309 309 309 309 309 308 307 306 306 304 302 299 291 289 289
296 291 288 287 289 290 291 293 295 292 294 295 292 291 291 293 294 295 294 295 291 292 292 293 294 298 297 294 295 296 296 295 296 296 295 296 296 298 299 299 300 301 303 304 304 304 304 305 305 304 303 302 303 303 303 304 303 302 303 303 304 303 301 299 298 296 296 294 294 294 293 295 295 298 307 306 304 299 303 307 306 304 303 303 302 301 305 304 305 304 302 300 297 293 289 289 289
295 293 289 290 290 292 295 294 295 296 294 293 292 291 290 290 292 294 291 292 293 294 295 297 296 297 299 293 294 295 295 294 294 295 295 295 296 297 299 300 301 302 302 302 301 302 303 304 304 303 302 301 301 302 302 302 301 300 300 300 300 298 297 296 296 295 295 294 293 294 294 295 296 296 294 294 292 292 291 291 292 292 291 292 296 289 290 292 291 289 289 292 289 290 289 289 289
295 297 296 294 291 292 296 294 292 292 290 291 290 291 295 293 292 292 293 293 296 293 294 297 299 299 297 293 294 294 294 294 294 294 294 295 295 295 297 297 298 296 296 298 300 301 302 303 303 303 301 300 301 301 302 302 301 299 298 298 298 297 296 295 295 295 294 294 293 294 295 294 293 292 291 291 291 290 289 289 289 289 290 290 292 288 288 288 288 288 288 289 288 288 288 288 289
294 294 295 296 295 295 297 296 293 291 293 292 291 294 292 292 293 290 292 295 299 297 293 296 298 300 299 297 294 294 294 294 294 294 294 294 294 295 296 297 297 296 296 298 299 300 301 301 301 301 300 299 299 299 300 300 299 298 297 297 296 295 294 295 294 293 294 293 293 294 293 292 291 290 290 290 290 290 289 288 288 288 288 288 290 287 287 287 287 288 287 287 287 287 287 287 287
296 295 291 295 294 296 298 298 295 293 291 294 292 290 292 292 293 291 291 298 300 298 294 295 296 295 296 294 294 295 295 294 294 295 295 295 296 296 296 296 297 297 295 296 296 298 299 299 300 299 300 298 298 298 298 298 297 296 296 298 297 297 295 294 294 293 294 293 293 294 293 291 291 290 290 290 289 289 289 289 288 287 287 287 289 288 287 287 287 287 287 286 287 286 287 287 287
295 295 293 295 295 295 297 294 292 290 290 291 290 291 295 294 293 291 296 299 300 297 297 297 294 293 294 295 294 295 295 295 295 295 296 296 296 297 296 295 295 294 295 295 296 296 297 299 298 298 299 298 297 296 297 297 296 295 295 296 295 299 295 295 294 293 293 293 293 293 293 291 290 290 290 289 289 289 289 288 287 287 287 287 288 287 287 287 287 286 286 286 285 286 286 287 286
294 297 294 292 294 293 294 292 291 291 292 290 292 293 295 294 292 292 298 300 300 298 296 296 294 291 293 295 295 295 295 295 295 295 295 296 296 295 295 295 295 294 295 295 295 296 296 298 297 297 298 298 297 295 296 295 295 294 293 295 295 298 294 294 293 292 292 293 293 292 292 291 290 290 290 289 289 288 288 288 287 287 286 286 287 287 287 286 286 286 285 286 286 285 285 288 286
291 292 291 292 293 291 292 291 293 290 290 288 293 295 296 292 293 294 300 297 295 294 293 292 292 294 294 295 295 295 295 296 295 296 295 294 294 294 295 295 295 295 295 295 295 295 296 296 297 297 297 299 297 294 294 294 295 293 293 294 294 295 294 294 293 292 291 292 293 292 291 292 290 289 289 289 288 288 287 287 286 286 285 286 287 287 287 287 286 285 286 285 285 285 285 286 285
293 292 291 291 291 291 292 291 292 292 294 291 294 294 294 289 290 294 300 293 294 294 291 291 291 293 294 294 294 295 295 297 296 295 295 294 295 295 295 295 295 295 295 295 295 295 295 296 297 297 297 298 297 295 294 293 294 293 293 294 294 295 294 293 293 292 292 291 292 291 291 291 291 289 289 288 288 288 287 286 286 285 285 285 287 286 287 287 286 286 286 286 285 284 284 285 285
293 292 292 292 290 292 295 292 293 291 294 289 291 290 290 289 288 296 298 300 296 293 295 293 291 292 293 293 294 294 295 296 295 295 296 297 297 297 296 297 297 296 296 296 295 294 294 295 296 296 297 297 297 296 295 293 294 294 293 293 294 295 293 292 292 292 291 291 291 291 290 290 291 289 289 289 290 287 287 286 285 286 286 286 286 286 286 286 286 285 286 286 284 283 284 284 285
292 291 288 291 290 289 295 290 290 290 292 289 291 286 285 291 294 296 298 296 294 292 295 296 294 293 293 292 293 294 295 295 295 297 298 298 298 298 297 298 298 297 297 296 294 294 295 296 297 296 296 297 297 297 296 294 294 294 293 293 294 294 293 292 293 291 291 290 291 291 290 290 290 289 289 288 288 287 287 286 285 285 285 286 286 286 285 285 284 285 285 285 287 284 283 284 283
291 288 288 286 285 286 292 291 288 290 290 290 292 287 289 292 295 296 296 294 292 294 295 296 296 294 293 293 293 294 295 295 297 298 298 299 299 299 298 298 298 297 297 295 294 295 295 295 296 296 297 296 297 297 296 294 294 294 293 293 293 294 293 292 292 291 291 290 290 290 290 290 290 289 288 288 287 287 286 286 285 285 285 286 285 285 284 284 285 285 284 282 282 282 282 285 283
285 286 284 280 285 287 292 290 290 291 289 288 291 286 289 293 295 297 294 293 290 292 294 294 295 295 293 292 293 293 295 295 296 297 298 298 299 299 299 298 298 297 297 297 296 295 294 294 296 295 296 296 296 297 296 295 294 294 293 294 293 293 293 292 291 291 291 290 290 289 289 290 289 289 288 288 287 287 286 286 285 285 285 285 285 284 285 284 284 284 284 282 281 283 283 282 282
282 286 284 285 282 284 286 293 287 292 290 289 292 288 286 288 293 295 293 293 290 292 293 294 294 294 295 294 293 293 294 294 294 295 297 298 299 299 299 299 298 298 298 298 296 295 294 294 295 295 295 295 296 296 296 295 294 293 293 293 293 293 292 292 291 290 289 289 289 289 289 290 289 288 288 287 287 286 286 285 284 285 285 284 284 284 283 285 284 284 283 284 282 281 281 281 282
284 283 283 283 284 285 284 287 292 286 289 287 289 287 289 293 293 292 293 291 288 289 292 293 293 293 293 293 293 293 293 294 295 296 296 297 299 299 300 300 299 299 298 298 297 296 295 294 295 295 295 296 296 296 295 294 294 293 293 292 293 292 292 292 291 290 289 289 289 289 289 290 289 288 288 287 286 286 285 285 284 284 284 284 283 283 283 284 283 283 282 282 282 282 281 281 281
283 282 281 284 283 284 287 284 286 287 288 287 286 287 288 291 293 293 294 295 290 290 293 294 294 294 293 293 293 294 294 293 295 298 298 298 297 298 299 299 299 298 299 298 297 296 295 294 294 295 295 295 295 295 295 293 292 291 290 290 290 291 290 289 289 289 289 289 289 289 289 289 289 288 287 287 286 286 285 284 284 284 284 283 283 283 282 283 283 281 282 281 282 282 281 281 281
286 285 285 281 283 283 283 288 291 290 290 286 284 288 290 291 292 294 295 295 294 294 294 294 294 294 294 295 295 296 296 297 299 299 298 298 297 297 298 299 299 298 298 298 297 295 294 294 294 294 294 294 294 294 293 292 291 291 290 288 288 290 289 289 289 290 289 289 289 289 289 289 288 288 287 286 286 286 284 284 284 284 283 283 283 283 283 282 281 281 281 282 282 282 282 281 280
286 285 283 285 284 286 287 289 289 288 286 287 289 289 290 290 291 293 295 295 295 294 294 294 295 295 295 295 296 297 297 298 301 301 298 297 297 296 297 298 298 297 297 296 296 295 294 294 293 293 294 294 294 293 292 291 290 289 289 290 290 290 290 289 289 289 289 289 288 288 288 288 287 287 287 286 285 286 285 284 284 283 283 283 283 283 283 282 281 282 283 283 281 279 280 280 280
287 286 283 286 283 286 290 290 290 287 285 285 286 288 289 290 292 293 295 293 293 295 295 295 295 295 296 296 296 297 298 300 299 299 299 295 295 295 296 296 296 295 295 296 296 295 295 294 293 294 294 293 294 294 293 292 292 292 291 290 291 291 290 289 288 288 289 289 288 288 288 288 287 287 287 285 285 285 284 284 284 283 283 282 282 282 282 284 283 282 282 280 280 279 279 279 281
286 286 285 283 285 288 290 290 292 289 285 287 287 287 289 290 292 293 294 294 295 296 297 297 297 296 296 297 297 297 298 297 298 298 299 297 294 293 295 296 296 297 297 296 296 295 294 293 293 294 294 293 294 294 293 292 292 292 292 291 291 290 290 290 289 289 288 288 288 288 287 287 287 286 286 286 285 284 284 284 284 283 283 283 282 282 282 282 281 282 281 280 279 280 280 281 279
284 284 281 283 287 284 285 285 285 285 288 284 283 286 288 290 292 293 294 295 296 296 297 297 297 296 296 297 298 298 298 298 298 298 298 296 293 293 293 294 296 296 296 295 295 295 294 294 293 293 293 293 293 293 294 293 293 292 289 289 290 289 288 288 287 286 287 287 287 287 287 287 286 286 286 285 285 284 284 284 284 283 283 283 282 282 282 281 281 281 280 281 280 278 277 279 281
285 286 285 285 285 287 286 285 284 286 286 284 286 287 288 290 289 290 293 295 294 295 295 295 296 297 297 298 298 298 298 298 298 299 298 295 291 292 294 295 295 295 295 295 295 295 295 294 293 293 293 293 293 294 293 292 291 288 287 287 287 286 286 286 285 284 286 287 287 286 286 286 286 286 285 285 285 284 283 284 283 283 283 283 282 282 282 281 281 281 281 281 278 278 278 277 279
286 285 287 288 289 287 286 286 285 281 283 283 284 282 286 285 288 289 291 290 290 292 292 293 295 296 296 296 296 297 297 298 298 298 299 296 293 292 292 293 294 295 295 296 296 295 295 294 293 293 293 293 293 293 293 292 291 290 288 287 286 286 285 285 286 286 285 286 287 287 286 286 286 286 285 285 285 284 283 283 283 283 282 282 282 282 281 280 280 280 281 281 278 278 279 277 277
286 283 287 289 288 286 285 285 283 279 277 284 283 280 282 282 284 286 287 288 290 290 290 292 294 295 295 295 297 297 297 297 297 297 298 297 295 291 292 293 294 294 296 296 295 294 294 293 293 293 293 292 293 292 292 292 290 290 289 289 289 288 288 287 289 289 288 287 287 286 286 285 286 285 285 284 284 284 283 282 282 283 282 282 282 281 281 281 281 281 281 280 279 280 279 277 278
284 283 284 285 284 284 285 284 284 283 281 283 283 282 280 283 286 288 289 290 289 289 291 292 294 295 295 296 296 296 297 297 296 296 296 297 296 295 294 293 294 295 294 294 294 293 293 292 292 292 292 292 292 292 292 292 291 290 289 289 289 289 289 289 288 288 287 287 286 286 286 285 285 285 285 284 284 284 283 282 282 282 282 282 282 281 281 280 280 281 281 280 280 280 279 279 277
283 286 284 285 286 284 283 284 282 280 279 280 281 282 280 282 285 286 288 285 287 288 291 293 295 296 296 296 296 296 297 297 296 296 296 296 295 294 294 293 294 294 294 294 294 293 293 292 292 291 292 292 292 291 292 291 291 290 290 290 289 290 290 289 287 287 286 286 285 285 285 285 285 285 285 284 284 284 284 282 282 281 281 281 282 281 280 280 280 280 280 279 280 279 278 278 278
285 284 284 283 282 282 282 280 282 279 277 279 280 283 279 282 288 282 284 285 286 288 291 293 294 295 296 296 297 297 296 296 295 295 296 295 293 293 293 293 292 294 294 294 292 292 292 291 291 291 291 291 291 291 291 291 291 291 290 289 289 289 289 286 286 286 285 285 285 285 285 285 284 284 284 284 283 283 283 282 282 281 281 281 282 280 280 280 280 280 280 280 280 279 279 278 278
285 285 284 282 281 278 277 277 278 279 278 281 282 283 283 279 283 284 283 286 287 290 289 291 293 294 295 295 296 297 297 297 297 294 292 292 290 291 290 292 292 291 291 291 291 291 291 291 290 290 291 291 291 291 291 290 290 290 290 290 289 289 288 286 285 285 285 284 285 284 284 285 284 284 284 283 283 283 283 283 282 281 281 282 282 280 280 280 280 280 280 279 279 279 279 278 280
287 287 280 283 284 277 276 270 276 275 277 280 283 283 284 279 280 281 284 283 283 289 289 291 292 293 294 295 295 296 296 297 294 292 292 289 290 290 289 290 290 290 289 290 290 291 290 290 290 290 290 290 290 290 290 290 290 290 290 290 289 290 288 287 286 286 285 285 285 284 284 284 284 284 283 283 283 283 283 282 282 281 281 281 281 280 280 280 280 280 279 279 279 279 279 279 278
286 282 284 280 275 273 270 271 271 272 278 278 281 283 280 281 287 285 286 289 287 286 290 291 291 292 293 293 294 295 295 294 293 291 290 290 290 290 289 289 288 289 290 290 290 290 290 290 290 289 289 290 290 290 290 290 290 290 290 290 290 290 289 288 287 287 286 285 285 285 284 284 283 283 283 283 283 282 283 282 281 281 281 281 281 280 280 280 279 279 279 279 279 278 278 279 278
284 284 281 278 272 271 269 267 266 270 277 277 279 282 281 286 285 289 292 294 295 293 290 291 292 293 293 294 294 293 293 293 294 291 290 291 291 291 290 290 290 289 289 290 290 290 290 290 290 290 290 289 289 289 289 289 290 290 290 290 290 289 289 288 288 287 287 286 286 285 285 284 284 284 283 283 284 283 283 283 282 281 281 281 281 280 280 280 279 279 279 279 278 278 278 278 278
287 285 287 283 280 272 271 273 277 279 281 276 277 277 275 275 282 285 292 290 288 287 290 291 291 291 291 290 291 292 293 294 294 291 291 291 291 290 290 290 290 289 289 289 290 290 290 290 290 290 289 289 289 289 289 289 290 290 290 290 290 289 289 289 288 288 287 286 286 286 285 285 285 285 284 284 284 283 283 282 282 281 281 280 281 280 280 279 279 279 279 279 278 278 278 278 277
284 283 282 280 282 282 283 284 281 283 280 275 273 278 277 283 286 287 287 289 290 289 288 287 289 290 290 291 292 294 295 295 294 290 290 290 290 290 290 290 290 289 289 289 289 290 290 290 290 290 290 289 289 289 289 289 290 290 290 289 290 289 289 289 288 288 288 287 286 286 286 285 285 285 285 284 283 283 283 282 282 281 281 280 280 280 280 279 279 279 278 278 278 278 277 277 277
283 285 282 286 286 287 285 285 285 278 274 279 278 278 284 286 291 290 288 288 290 290 289 289 290 291 290 291 294 294 295 295 293 292 291 291 291 290 291 290 290 289 289 290 290 290 291 291 290 290 290 289 289 289 289 289 289 289 289 289 289 289 289 288 288 288 288 287 286 286 286 285 285 285 284 284 283 283 283 282 281 281 280 280 280 280 279 279 279 279 278 278 277 277 277 277 277
284 280 284 286 287 285 284 276 276 277 277 279 280 281 283 281 281 283 283 284 284 284 286 289 289 289 289 292 292 292 292 292 292 291 290 291 291 292 291 290 290 290 290 289 289 289 290 291 290 290 289 289 289 289 289 289 289 289 289 289 289 289 289 289 289 288 287 286 285 285 285 284 284 285 284 284 283 282 282 282 281 281 280 280 279 279 279 279 278 278 278 278 278 277 277 276 276
283 282 287 286 280 280 280 275 275 276 276 277 281 283 284 284 285 288 288 290 290 290 289 287 288 288 288 289 291 291 291 291 292 292 291 291 292 292 290 290 290 290 290 289 289 289 289 288 289 290 290 290 290 290 289 290 289 290 290 289 289 289 289 289 288 288 286 286 285 285 285 285 284 284 284 283 282 282 282 282 281 280 280 279 279 279 279 278 278 278 277 277 277 277 276 276 276
286 286 284 285 283 280 278 281 278 281 278 280 279 283 281 288 283 286 286 287 288 288 285 287 287 287 287 288 290 291 291 291 291 291 291 290 290 288 288 289 289 290 289 289 288 287 288 289 288 289 289 289 289 289 289 289 289 289 290 289 289 289 289 289 288 287 286 286 285 285 285 284 284 284 283 283 282 282 282 281 281 280 279 279 279 279 278 278 278 277 277 277 276 276 276 276 275
284 284 281 283 282 283 283 283 281 281 279 279 279 279 284 289 285 287 286 285 284 285 286 285 286 287 288 288 289 290 290 291 292 292 291 290 289 288 287 285 285 285 286 287 287 288 288 287 288 289 289 289 289 289 289 289 289 289 289 289 289 289 288 288 287 287 286 286 285 285 285 285 283 283 283 282 282 282 281 281 280 280 279 279 278 278 278 278 277 277 277 277 276 276 276 275 275
283 284 283 285 283 280 280 278 286 281 281 278 280 277 285 292 292 287 288 285 284 285 285 288 290 291 289 288 288 287 290 291 290 290 289 290 289 291 289 287 286 286 285 287 288 287 287 288 289 289 288 288 289 289 289 290 289 289 288 288 288 288 287 287 287 286 286 286 285 285 284 283 283 283 283 282 282 282 281 281 280 279 279 279 278 278 278 277 277 277 276 276 276 276 275 275 275
Wind_Speed
5 4 3 1 3 2 1 6 0 3 2 4 3 0 4 1 2 4 3 2 0 2 2 1 1 4 5 4 8 7 2 9 7 10 6 1 2 1 3 2 4 5 6 4 4 4 5 6 11 12 13 13 12 11 12 13 12 10 10 11 11 11 11 10 9 8 8 7 7 7 7 7 7 7 7 8 8 8 8 8 9 9 9 9 9 9 11 13 13 13 13 12 13 12 13 13 13
3 4 3 0 0 1 1 1 3 3 4 3 6 2 4 2 1 6 5 6 3 0 0 2 3 4 6 6 3 3 1 3 5 1 2 4 4 2 3 5 5 8 5 4 4 4 4 4 11 11 12 11 12 12 11 10 11 11 11 10 10 10 9 8 8 8 7 7 7 7 7 7 7 7 7 8 7 9 10 10 8 8 8 9 11 12 12 12 12 12 13 12 11 12 12 13 13
3 5 2 4 2 3 2 4 3 1 0 4 7 7 2 2 5 7 9 7 3 2 1 1 1 1 1 1 1 3 6 1 1 1 1 2 5 8 6 6 6 6 6 4 4 4 3 3 9 13 15 14 14 13 12 12 12 12 11 10 10 10 10 10 9 8 7 6 7 6 6 6 6 6 7 7 8 11 11 12 11 9 9 10 11 12 12 12 12 13 12 11 12 12 12 12 12
0 3 2 3 2 3 1 3 3 5 2 6 5 6 3 3 6 7 6 8 3 0 0 0 1 1 0 2 2 2 3 2 6 6 2 6 8 5 9 9 8 6 4 4 4 4 3 4 7 11 13 12 12 13 13 12 11 12 12 12 11 10 10 10 9 9 8 7 7 7 7 7 7 8 8 7 10 11 12 12 12 11 11 11 11 12 12 12 12 12 12 11 12 12 12 12 12
2 2 2 4 3 1 1 0 2 3 4 5 3 5 4 5 7 4 3 3 2 0 1 1 0 0 1 0 0 1 3 2 2 5 1 2 2 7 10 8 7 7 6 5 5 4 4 6 9 11 14 15 14 13 13 13 12 12 12 12 12 12 11 11 10 10 10 9 8 8 8 8 8 8 8 10 11 12 12 12 12 12 12 11 12 12 12 12 12 12 11 12 11 11 11 12 12
5 2 3 1 0 2 5 0 1 3 8 4 1 4 4 6 4 4 4 4 4 1 3 1 1 1 1 2 3 1 3 2 1 2 3 5 6 9 10 7 8 7 6 5 4 4 5 8 10 13 16 14 14 15 14 14 14 14 14 14 13 13 12 12 12 11 11 11 11 10 10 10 10 10 11 11 12 12 12 12 12 12 12 12 12 12 12 12 12 12 12 12 12 12 12 13 13
0 4 4 4 2 4 4 3 5 5 10 7 4 6 9 6 5 1 2 2 1 2 3 2 1 0 1 2 1 4 1 1 2 2 6 2 6 10 10 8 7 8 6 5 4 5 5 9 13 16 14 16 15 15 15 15 16 16 15 14 14 14 13 13 13 13 12 13 13 13 12 12 11 11 12 12 12 12 12 12 12 12 12 12 12 12 12 12 12 12 12 12 13 13 13 12 13
1 2 1 1 1 2 1 2 5 6 5 8 4 4 8 6 1 3 3 2 2 3 2 2 1 1 6 2 2 1 2 3 3 1 2 6 8 9 10 9 9 7 7 5 4 4 6 10 14 15 16 16 15 16 16 16 16 15 14 14 14 14 14 14 14 14 14 13 13 13 13 12 12 12 12 12 12 12 12 12 12 12 12 12 12 12 12 12 12 12 12 13 13 12 12 12 12
4 5 0 3 2 2 1 4 5 3 7 3 8 7 9 5 4 3 4 3 4 2 1 1 4 2 3 1 3 2 4 1 1 2 4 7 11 10 9 11 11 9 7 6 5 4 4 9 12 15 15 15 16 16 16 16 15 14 14 14 14 14 14 14 14 14 13 13 13 13 13 13 13 13 13 13 12 12 12 12 12 12 12 12 12 12 12 12 12 12 12 13 13 12 12 13 13
2 1 2 2 3 4 2 6 1 5 6 4 5 8 6 2 3 5 4 4 6 1 3 1 2 4 1 4 4 3 2 4 1 2 4 7 9 9 9 9 8 10 7 6 5 5 4 7 10 12 14 15 16 16 15 14 14 14 14 14 14 14 14 14 13 13 13 13 13 13 13 13 13 13 13 13 13 13 13 12 12 12 12 12 12 12 12 12 12 12 13 13 13 13 13 13 14
0 5 2 2 0 2 4 7 5 6 4 3 8 12 13 4 5 4 4 3 1 3 1 3 1 6 1 4 5 1 4 1 3 6 6 7 7 8 8 6 7 9 9 6 5 5 4 4 7 10 11 13 14 15 14 14 14 14 14 14 14 14 13 13 12 12 12 12 12 12 12 12 12 13 13 13 13 13 13 13 12 12 12 12 12 12 12 12 12 13 13 13 13 13 13 13 14
1 1 2 1 3 6 5 3 5 8 7 4 5 5 1 6 4 2 3 3 3 4 4 7 3 5 1 2 4 1 6 3 5 4 7 5 6 5 6 4 6 6 7 7 5 5 5 4 4 8 10 10 11 13 14 14 13 13 13 13 13 13 13 13 12 12 12 12 12 12 12 12 12 12 12 13 13 13 13 13 12 12 12 12 12 12 12 12 13 13 13 13 13 13 13 14 14
2 1 4 2 3 1 1 1 7 4 6 4 5 2 2 7 7 9 5 6 1 1 5 12 1 3 2 3 3 4 1 8 5 4 6 5 5 4 4 4 4 4 5 5 6 5 5 4 4 5 6 10 10 10 11 12 13 13 13 13 12 13 13 13 13 12 12 12 13 12 12 12 12 12 12 12 12 12 13 12 12 12 12 12 12 12 12 13 13 13 13 13 13 13 13 13 14
2 4 4 3 1 0 2 4 2 4 5 5 3 1 2 2 4 3 5 3 6 4 4 3 1 2 3 2 6 4 6 4 5 5 4 5 5 4 4 4 4 4 4 4 6 5 4 4 4 4 4 5 5 8 10 10 11 13 13 13 13 13 13 13 13 13 13 13 13 12 12 12 12 12 12 12 12 12 12 12 12 12 12 12 12 13 13 13 13 13 13 13 13 13 13 13 13
0 2 4 1 1 1 3 2 2 2 6 2 2 0 2 5 1 2 6 5 10 4 0 2 4 3 6 6 8 5 5 6 6 6 6 5 5 5 4 3 4 3 3 4 4 5 5 4 4 4 4 4 5 5 4 6 10 11 12 13 13 14 14 14 14 13 13 13 13 13 12 12 12 13 12 12 12 11 11 10 12 12 12 13 13 13 13 13 13 13 13 13 13 13 13 13 13
4 5 2 1 2 1 5 3 0 1 7 1 3 1 1 6 2 1 5 4 2 1 0 4 1 4 1 5 2 2 2 8 6 7 7 6 4 4 3 3 3 3 4 4 5 5 5 5 4 4 4 4 4 5 5 5 8 10 11 12 13 13 13 13 13 13 11 11 11 10 9 8 8 7 10 8 11 11 10 7 11 12 12 13 13 13 13 13 13 13 13 13 13 13 13 13 13
2 3 0 2 6 3 4 3 3 3 5 3 6 1 1 2 0 2 1 0 2 2 2 2 5 0 4 4 2 5 4 8 9 8 7 5 6 5 3 3 4 4 4 6 6 6 5 6 5 5 4 4 4 4 4 4 5 9 9 10 11 11 11 12 13 11 10 9 9 9 9 6 5 6 7 6 8 5 9 10 12 12 12 12 12 12 12 12 12 13 13 13 13 13 12 11 12
1 1 3 3 5 3 5 5 7 1 1 4 5 0 2 4 3 1 1 2 2 1 2 4 3 3 1 3 2 2 6 12 10 13 9 8 6 6 6 6 6 10 8 7 7 7 7 7 7 6 5 5 5 5 4 4 4 6 5 5 5 7 9 9 8 6 7 5 8 7 5 5 6 5 5 6 5 5 7 11 11 12 12 12 12 12 12 12 13 13 13 13 13 12 11 6 5
3 1 2 8 5 7 6 4 5 0 6 3 4 2 3 8 0 2 1 5 2 5 4 1 5 7 1 3 3 7 9 9 11 11 14 14 12 14 12 9 10 6 9 9 9 10 8 7 6 8 7 6 6 5 4 4 4 4 4 4 5 6 6 6 6 6 5 6 5 5 5 5 5 5 5 5 5 9 7 11 12 12 12 12 12 12 11 11 12 12 13 12 12 11 6 5 5
3 4 6 7 8 6 5 4 5 7 2 8 6 3 4 4 1 0 3 10 3 9 6 2 6 11 11 2 3 6 8 10 11 14 15 15 14 15 12 12 12 12 13 12 11 7 8 9 10 8 8 7 7 6 5 5 4 4 5 5 6 5 5 5 5 5 5 5 6 6 6 5 5 6 7 9 7 5 7 9 12 11 11 10 10 7 9 10 11 11 11 10 7 4 4 4 4
2 2 5 5 4 2 7 8 11 10 2 3 3 0 2 6 6 2 4 6 11 11 7 10 12 13 12 7 6 7 9 10 11 11 13 14 13 10 13 15 17 16 10 6 5 11 12 11 9 9 8 7 7 7 6 6 5 6 6 5 5 6 6 6 6 5 5 5 5 6 5 5 5 6 5 5 6 6 5 5 5 5 5 5 6 5 5 5 5 5 4 5 4 4 4 5 4
4 9 6 6 1 2 9 6 6 3 3 2 3 5 7 0 0 5 6 10 16 4 8 13 13 12 8 9 11 8 10 13 14 14 16 17 18 17 13 9 6 4 4 8 13 11 12 11 10 8 8 8 8 8 8 6 6 6 6 6 6 6 6 6 6 6 6 5 5 5 5 6 6 6 5 5 5 6 6 5 5 4 4 4 3 5 5 3 3 3 3 4 3 3 4 3 3
5 4 6 7 6 6 2 2 3 3 2 2 5 4 3 3 7 4 5 14 19 3 4 10 12 12 9 6 9 10 12 14 16 18 17 16 15 15 14 12 11 11 10 13 9 8 9 9 10 9 10 9 9 7 6 6 7 6 6 6 7 6 6 7 7 6 6 5 5 5 7 6 6 6 6 5 5 5 6 5 5 4 4 4 3 5 4 2 2 3 3 3 3 3 3 3 3
3 8 1 6 6 11 9 8 4 4 4 7 4 4 5 5 12 1 5 17 18 8 7 7 8 5 4 8 14 17 18 19 20 21 20 22 22 22 19 17 14 8 5 9 9 9 10 14 11 10 10 10 9 8 8 8 7 7 7 6 7 7 7 7 7 6 6 6 5 5 4 6 7 7 6 6 6 5 5 4 5 5 4 4 3 4 5 3 3 2 3 3 3 3 4 3 3
5 8 4 6 2 7 9 7 6 5 8 6 4 6 15 9 9 5 17 22 13 9 7 11 8 3 5 8 13 13 13 13 15 16 11 12 12 12 8 7 6 8 12 12 10 11 13 12 12 13 12 12 9 9 9 8 7 7 7 8 8 7 8 8 7 6 7 6 5 5 5 7 5 6 6 6 6 6 6 5 6 5 4 4 4 4 4 5 4 4 3 3 3 3 4 4 3
7 13 2 4 4 6 6 6 7 6 5 3 2 12 14 11 4 10 25 24 12 10 8 9 6 5 7 11 12 13 14 17 17 12 18 15 11 10 13 12 11 13 17 13 12 13 10 11 14 16 15 13 11 10 9 9 9 9 9 9 8 8 8 7 6 7 6 7 7 6 6 6 6 7 7 6 7 7 6 5 5 5 6 5 5 6 5 5 6 4 4 3 4 3 4 3 3
4 4 4 6 8 6 6 5 4 3 4 5 6 12 17 2 4 12 15 5 1 1 5 3 5 9 10 8 9 11 13 17 19 17 7 8 11 13 15 12 13 18 11 13 13 12 10 11 14 14 13 11 10 11 10 10 9 10 10 8 8 8 8 7 7 6 6 6 7 6 6 6 6 5 6 7 6 7 6 6 6 5 6 6 5 6 4 5 5 5 5 4 4 4 5 2 3
2 2 5 7 6 7 10 6 12 1 7 10 10 13 11 4 2 15 23 3 2 3 5 3 5 9 9 10 10 9 12 15 10 6 16 14 15 16 15 15 19 15 13 17 14 10 10 15 15 14 14 12 12 12 10 10 11 10 9 8 9 8 7 7 7 7 7 7 6 6 6 6 6 6 6 6 7 7 7 7 6 6 6 6 5 5 5 4 5 4 4 3 3 4 4 3 2
1 2 8 9 6 9 15 7 7 8 8 5 8 2 8 4 9 20 19 14 3 6 12 8 9 9 9 8 9 8 14 13 8 11 18 18 16 14 19 19 18 16 14 14 11 11 15 14 14 15 14 13 14 14 13 11 9 9 9 9 8 8 8 7 8 8 7 7 6 7 7 7 6 7 7 7 6 6 7 7 6 6 6 6 5 5 5 4 4 4 4 3 3 3 3 4 3
3 1 0 11 9 9 15 3 1 6 4 7 6 8 5 13 18 17 18 9 2 4 12 14 8 9 9 8 9 11 10 8 11 17 17 16 15 15 18 17 16 14 12 9 10 14 14 9 10 10 13 15 16 13 11 10 10 9 8 8 8 8 8 8 8 7 7 7 7 7 7 7 7 6 7 6 6 6 7 7 7 6 6 5 5 5 6 5 5 5 3 4 3 4 5 4 4
4 4 1 5 7 10 5 2 1 2 4 8 3 10 10 12 19 15 11 4 5 9 13 13 11 8 8 8 9 12 14 12 18 19 18 16 15 13 17 14 14 15 9 10 16 20 14 13 11 11 14 16 15 14 14 12 10 10 9 9 8 9 8 8 7 7 7 7 7 7 8 7 8 8 7 8 7 7 7 7 6 6 6 5 6 5 6 5 5 5 3 6 3 4 4 3 4
2 4 7 2 6 8 16 5 5 9 2 3 6 11 14 14 18 18 5 1 4 8 12 12 11 10 9 7 9 11 14 12 14 14 16 17 15 14 16 17 15 13 17 17 16 11 14 14 14 14 14 16 16 16 14 13 12 11 9 9 8 8 8 8 8 8 8 7 7 7 8 8 8 8 8 7 8 7 7 7 7 6 6 6 6 5 5 6 5 4 2 4 5 3 3 3 3
3 6 7 9 2 6 9 12 4 12 5 1 11 12 1 8 14 17 5 3 5 8 11 12 13 12 12 9 8 9 11 11 11 15 16 16 15 15 15 15 15 19 18 16 15 14 14 15 15 16 18 19 18 16 14 12 11 11 10 10 10 9 9 9 7 7 7 7 7 8 8 8 8 9 9 8 8 8 7 6 6 6 6 6 6 5 5 5 6 5 3 2 3 5 3 2 2
7 1 7 3 7 4 6 9 11 3 6 4 7 8 13 14 10 9 12 2 3 7 13 13 12 10 10 9 9 10 11 12 14 16 18 16 15 17 16 14 16 16 14 16 15 16 18 17 17 17 16 16 14 15 14 12 11 10 8 8 8 9 9 8 7 7 8 8 7 8 9 9 9 9 9 8 7 7 6 6 6 6 6 6 6 6 6 4 4 5 5 2 3 4 3 3 3
8 4 5 8 5 7 13 2 5 2 2 7 2 11 16 15 14 13 13 13 7 9 12 14 13 11 10 9 11 13 13 13 18 17 14 12 15 14 14 14 13 13 12 15 15 14 11 11 12 14 14 14 14 13 11 9 8 6 5 6 7 7 7 7 7 7 8 7 9 9 9 9 9 9 9 8 8 8 7 7 7 6 6 7 7 6 6 5 4 3 5 4 3 4 4 2 1
13 9 8 3 7 7 6 12 12 7 16 7 5 15 18 15 14 15 13 15 16 17 15 15 15 13 13 14 15 15 16 19 20 15 11 11 11 11 12 12 12 12 11 11 12 12 12 11 10 11 12 13 11 10 9 9 8 9 10 6 6 8 8 8 8 9 8 9 9 9 10 9 8 9 9 8 8 8 8 8 8 7 6 7 8 8 7 6 7 6 5 6 5 3 3 2 2
3 1 3 10 10 11 9 13 10 1 5 12 15 19 19 17 15 17 16 13 16 17 18 17 15 15 14 14 16 19 18 20 20 14 10 11 11 10 10 10 11 10 10 11 12 14 15 16 15 17 15 15 14 14 13 13 13 9 7 12 13 11 11 10 9 9 10 10 10 10 10 9 9 9 9 9 9 8 7 7 7 6 6 7 8 8 7 7 5 5 6 3 4 3 3 3 3
6 7 6 12 5 15 15 12 9 0 3 5 5 15 19 18 15 16 15 9 18 20 22 21 18 16 15 16 20 20 20 15 13 15 15 8 9 8 8 9 8 12 12 13 17 18 18 16 17 16 12 14 15 16 15 15 15 16 17 16 13 12 12 12 12 11 11 9 9 10 9 8 9 9 9 9 8 9 9 8 8 9 8 7 5 5 5 5 5 5 6 5 2 3 2 3 4
7 9 8 8 11 14 14 13 16 8 2 15 9 18 20 16 15 14 15 19 16 17 21 21 18 16 14 16 19 20 18 18 16 17 17 9 7 7 8 9 11 16 16 18 18 16 14 14 14 13 14 15 15 15 13 15 12 11 12 10 13 10 8 8 7 7 6 8 9 9 9 9 9 9 9 9 9 9 9 9 9 8 7 7 7 7 6 6 6 7 5 7 5 3 2 2 4
6 6 5 13 8 3 13 3 2 1 5 7 5 17 20 14 15 18 19 21 18 15 20 20 17 18 18 21 21 18 19 19 20 20 19 8 7 8 8 10 12 11 10 10 10 15 13 14 14 15 15 15 14 14 15 12 11 8 6 4 5 6 6 6 5 5 6 6 10 9 9 10 10 10 10 10 8 8 9 10 8 8 8 7 8 9 8 8 7 6 5 5 8 5 1 0 2
6 11 11 11 11 16 12 7 5 6 6 5 13 17 18 11 14 11 15 18 17 14 17 16 19 17 17 19 19 19 21 22 21 20 16 6 5 9 12 12 8 11 13 14 14 15 13 18 17 17 15 16 14 15 15 12 10 8 6 6 6 6 5 6 5 6 9 10 8 9 12 10 10 10 10 10 9 10 9 8 8 8 8 7 7 8 9 9 8 7 7 7 6 8 5 2 0
10 7 11 20 19 13 8 9 7 4 7 2 1 11 17 5 13 14 11 5 8 10 11 16 21 19 17 18 22 20 16 17 19 20 19 6 8 7 8 8 10 12 13 15 14 16 14 13 14 13 11 12 13 14 15 13 13 14 13 11 11 10 9 9 14 16 14 14 16 8 6 10 11 10 10 10 10 8 9 9 8 8 8 8 7 7 7 6 7 8 8 7 6 3 7 6 2
11 7 14 18 12 8 8 12 3 6 3 3 2 0 22 4 4 8 6 7 12 7 7 16 19 17 14 16 18 16 13 13 12 14 15 11 9 6 8 11 13 13 15 9 9 11 12 12 13 15 14 13 13 14 15 13 13 12 16 17 16 16 16 13 13 11 11 10 8 11 11 9 11 11 10 10 9 9 8 8 8 8 7 7 6 7 8 9 8 8 6 6 6 7 7 5 7
10 2 6 6 6 7 9 6 6 8 1 4 1 3 7 25 10 10 12 13 10 11 14 17 17 16 15 15 13 14 16 12 11 12 13 12 9 11 13 13 11 15 8 7 10 11 14 14 14 14 12 12 13 13 16 15 15 15 15 14 13 14 15 15 13 11 8 8 10 11 10 11 11 11 11 10 10 9 9 8 8 8 8 7 8 8 9 7 6 5 6 6 6 6 7 9 7
5 1 5 5 8 7 2 5 6 3 3 9 3 3 4 12 7 2 6 5 8 11 17 18 17 16 14 13 13 16 17 15 10 12 15 12 9 9 9 9 12 9 9 13 13 12 11 11 12 12 13 13 13 15 16 16 15 16 16 15 14 13 13 10 7 7 9 10 11 9 10 10 10 10 10 11 11 10 9 9 9 8 8 8 8 7 6 8 10 10 9 8 8 7 5 5 8
4 5 7 6 5 4 3 4 3 1 1 10 7 7 6 20 14 5 3 1 7 13 16 17 14 12 13 12 12 16 13 12 10 13 14 9 6 7 8 8 7 11 9 7 7 9 10 10 13 14 15 13 13 15 16 17 16 14 15 15 17 14 11 7 8 10 10 10 12 12 11 10 10 10 10 10 10 10 10 9 10 10 10 9 8 8 8 8 8 8 9 8 8 8 5 7 8
4 3 2 4 6 3 3 5 2 3 8 11 14 13 9 15 5 9 8 8 8 9 4 7 10 11 14 13 14 14 14 11 12 7 6 6 3 5 5 8 7 5 5 7 8 9 10 11 13 15 15 12 13 16 17 18 16 15 16 17 18 17 14 11 10 10 10 9 13 12 12 11 9 11 9 9 11 11 10 10 10 10 8 8 9 9 10 10 9 9 7 7 8 9 7 7 5
3 2 2 3 4 6 1 3 2 3 12 4 14 15 13 13 2 4 5 3 4 7 8 8 10 13 12 10 11 11 11 13 7 5 6 3 4 2 1 5 5 6 6 8 9 9 11 12 13 15 13 15 14 14 16 16 16 16 15 16 17 16 15 13 15 15 14 15 13 12 9 8 10 9 9 9 10 11 11 10 9 8 9 9 10 9 8 8 8 7 7 8 7 7 6 7 7
4 4 1 2 5 6 3 2 1 5 11 2 3 7 3 21 15 4 8 11 6 7 9 9 10 11 11 11 13 12 10 10 8 5 4 2 4 5 5 5 4 6 10 10 11 11 11 12 15 17 17 15 15 15 17 17 16 17 17 16 15 13 14 15 15 14 13 13 12 11 12 13 10 10 12 13 12 13 11 11 11 11 10 10 9 9 8 8 8 8 8 8 8 9 9 9 9
7 7 5 5 3 4 6 4 2 6 8 3 4 1 12 12 8 10 16 20 19 10 9 10 9 11 12 11 9 10 11 11 12 3 3 4 5 5 4 5 5 5 6 9 10 12 12 12 14 17 17 15 14 15 16 17 19 19 16 15 14 12 14 14 13 13 12 11 11 13 14 14 14 16 14 15 13 12 11 12 11 11 10 9 10 10 9 9 9 9 9 9 10 8 7 8 8
14 4 13 11 10 6 5 5 9 9 9 1 3 4 9 1 5 3 11 5 5 4 6 10 10 8 8 9 11 14 14 14 9 1 3 3 4 4 4 5 6 6 6 7 8 10 10 12 14 16 14 15 16 17 14 18 17 16 15 14 13 12 14 13 13 11 11 13 12 13 12 11 13 13 13 12 11 14 14 11 12 12 11 11 10 10 9 9 9 8 8 8 7 7 8 8 7
3 3 3 1 11 6 8 8 8 11 8 4 2 8 3 7 1 4 6 9 9 7 5 4 7 8 8 10 12 14 15 13 10 5 4 4 5 4 5 6 5 5 6 7 9 10 12 14 14 16 18 17 16 15 16 18 17 12 12 13 16 14 11 11 10 11 13 14 14 14 14 13 12 10 10 10 12 13 14 13 11 12 11 10 10 11 11 10 10 10 8 8 9 6 8 9 8
3 7 7 11 3 7 7 5 5 2 3 15 3 8 12 6 14 6 5 5 10 7 9 8 10 10 8 9 12 12 11 11 9 9 7 7 6 6 6 6 5 6 7 11 13 15 16 14 13 14 13 11 16 18 19 16 14 13 16 16 13 13 15 17 17 17 15 11 11 11 11 12 10 10 11 11 12 12 12 13 12 12 11 11 10 10 10 10 10 9 9 10 10 8 8 9 7
8 4 7 2 2 3 3 6 1 4 12 10 3 15 13 4 15 2 5 5 6 4 7 10 7 7 7 11 9 11 12 12 11 9 6 6 7 9 5 2 3 5 7 6 5 5 5 7 11 13 11 14 16 17 16 15 15 16 15 15 16 16 16 16 13 12 11 10 10 10 10 10 14 12 10 10 11 13 12 13 12 11 11 10 11 10 10 10 10 9 9 9 8 8 8 6 7
2 4 2 3 4 5 3 4 6 9 11 7 9 18 19 11 17 8 11 12 10 10 6 4 7 6 5 6 8 8 9 9 9 9 7 6 6 4 4 2 4 5 4 4 4 4 5 6 6 9 14 16 13 10 10 10 13 13 13 16 16 15 13 13 11 9 8 12 13 13 14 14 9 10 12 12 13 12 12 13 12 11 10 11 10 11 10 10 10 9 9 9 8 9 9 9 7
1 1 2 1 1 3 3 7 1 2 13 9 11 11 15 7 3 4 6 8 7 6 5 1 5 9 6 6 6 8 8 8 9 9 8 5 3 3 4 5 6 6 5 5 5 5 7 7 6 9 8 7 9 12 13 14 14 13 13 12 13 15 15 13 12 11 11 13 14 13 13 11 14 11 11 12 12 14 14 14 13 13 12 12 12 11 11 10 10 9 9 9 9 10 10 10 8
3 2 4 2 1 3 2 3 2 6 10 10 10 13 9 9 3 2 3 5 3 3 4 5 4 5 7 6 6 8 9 9 9 10 10 8 5 4 4 4 3 2 1 2 3 5 5 5 9 10 12 12 12 13 11 14 12 14 13 15 16 15 15 12 10 11 13 12 11 12 13 13 9 12 13 13 14 15 14 14 14 14 14 13 13 12 11 11 10 10 9 9 9 10 10 8 8
3 6 6 8 7 6 9 11 3 4 7 10 10 15 5 6 7 5 1 3 3 3 2 5 7 8 6 5 5 4 7 10 9 8 8 8 6 3 2 2 1 2 4 6 8 7 8 10 11 9 8 10 13 13 14 15 12 12 11 13 12 10 10 11 14 13 13 13 12 12 11 9 13 13 13 14 15 13 13 14 14 14 13 13 13 14 13 12 13 12 11 8 10 11 11 9 9
Wind_Direction
336 348 332 25 56 89 43 4 30 312 40 262 315 272 262 265 247 333 247 339 210 239 195 45 181 153 170 206 191 192 204 137 207 130 212 240 327 268 211 188 157 134 148 163 165 171 159 173 159 153 159 157 155 150 152 150 145 149 149 145 145 140 135 133 131 134 134 127 123 123 114 110 103 104 99 97 96 94 91 90 88 78 72 66 61 73 64 60 62 61 57 48 39 34 30 32 32
313 339 28 5 11 41 261 115 101 346 38 359 253 120 252 288 27 227 229 195 202 230 189 113 95 103 69 52 118 100 264 229 175 185 278 238 312 247 208 186 165 152 155 163 160 153 152 187 161 160 164 165 161 164 166 161 164 159 162 159 158 150 147 142 135 146 139 137 142 133 131 129 122 113 99 92 96 92 84 83 84 86 86 72 66 59 55 53 55 58 58 55 46 39 37 33 31
346 10 20 30 30 75 87 36 282 48 50 273 275 215 325 298 222 254 225 206 229 263 80 145 159 55 44 1 308 164 247 143 298 211 210 335 135 227 194 176 166 154 153 161 154 155 154 194 181 175 176 173 174 172 172 169 172 166 160 165 168 165 164 162 145 142 143 150 147 145 146 136 128 119 113 108 96 82 78 76 75 80 82 77 72 70 69 66 63 62 62 58 50 43 40 37 35
77 29 123 65 232 32 63 24 95 130 207 221 308 270 209 211 248 231 258 252 268 320 357 272 146 220 127 255 229 31 271 284 196 159 186 210 209 169 168 172 161 153 149 158 164 157 158 194 163 173 177 174 182 177 169 170 175 169 167 173 164 160 163 161 157 153 156 157 144 148 139 127 123 118 117 110 89 83 80 74 72 76 81 79 78 77 74 69 67 65 64 60 54 48 43 42 40
58 349 77 94 108 344 102 190 148 104 246 187 208 275 249 232 251 272 275 284 268 183 347 310 64 304 179 206 219 161 246 235 274 194 226 232 209 159 157 169 151 152 162 170 161 160 169 180 173 176 177 183 177 181 173 169 170 169 167 170 167 166 166 165 163 157 161 157 150 147 143 132 131 127 120 97 86 83 81 78 75 70 72 76 75 75 74 74 72 70 67 63 60 55 51 48 45
52 53 2 91 318 156 56 45 287 204 226 148 231 253 236 232 235 231 255 304 275 258 217 313 210 216 306 228 186 214 194 125 147 173 170 238 174 152 157 155 150 156 167 169 166 161 171 186 183 177 182 182 177 176 174 174 171 169 166 162 158 157 157 155 154 153 157 157 151 148 144 140 135 123 103 94 91 89 86 83 80 76 74 73 75 74 74 74 74 74 70 68 66 63 59 54 49
311 43 353 24 20 53 181 180 229 207 263 162 233 259 267 275 226 178 291 341 257 310 163 217 89 130 350 288 324 238 171 131 110 237 172 171 143 147 154 154 148 162 166 171 171 165 177 185 177 179 181 179 178 177 176 173 171 168 163 159 157 157 155 152 151 152 153 151 147 142 136 130 121 110 105 100 97 95 93 89 85 83 80 78 77 77 77 75 75 74 73 72 70 66 63 59 55
59 127 298 111 214 31 227 220 253 154 275 173 228 227 264 266 172 164 232 126 255 192 209 241 179 113 247 55 224 284 329 200 208 274 256 141 145 148 157 155 155 167 170 172 174 171 179 182 179 178 179 178 178 177 176 174 172 165 161 159 156 154 153 151 151 152 149 143 137 132 128 124 120 116 111 108 104 100 98 95 93 90 88 85 82 80 80 80 78 76 77 76 73 71 68 64 60
356 85 300 80 204 43 26 231 251 228 280 279 266 235 268 254 181 152 204 227 331 239 284 231 196 121 262 5 235 288 289 282 296 206 177 152 155 158 159 165 163 165 170 172 175 172 178 180 182 179 180 179 178 178 177 174 169 163 160 158 156 155 155 152 150 147 146 144 140 136 133 129 127 123 120 116 112 107 104 102 98 95 92 90 86 83 81 80 78 77 77 76 75 72 69 66 62
29 71 270 155 124 247 341 279 149 237 220 233 247 261 244 215 192 183 188 257 224 6 253 197 164 218 261 240 298 296 243 345 97 79 186 163 153 155 162 169 163 158 163 172 174 172 171 184 190 182 181 181 181 180 178 173 167 163 162 159 158 156 154 152 150 149 147 143 140 137 134 131 128 125 122 119 116 113 109 105 101 97 96 92 88 86 83 81 79 77 76 74 72 69 67 63 61
312 11 141 104 14 248 226 272 251 302 262 303 292 253 246 214 165 189 187 232 235 210 317 145 345 242 72 264 218 267 322 295 153 187 185 164 149 159 160 161 159 162 163 170 172 170 174 184 203 179 180 184 183 181 177 173 169 165 162 161 158 156 154 153 151 148 145 142 139 136 132 129 125 122 120 119 117 114 111 108 105 101 97 93 90 87 86 83 80 78 75 73 70 69 66 63 60
340 20 356 113 201 175 240 223 275 270 289 316 274 291 213 149 128 161 215 240 235 241 199 150 229 137 205 321 286 287 329 273 220 175 170 148 148 153 148 149 154 166 162 165 164 171 175 177 189 179 181 182 186 182 177 174 169 165 162 160 158 157 155 154 151 148 145 141 138 133 129 126 122 119 117 116 114 113 113 109 106 103 100 97 93 90 88 83 80 76 75 72 70 69 68 65 62
109 103 79 101 238 153 244 287 261 310 318 277 229 328 108 128 178 206 195 215 1 210 280 218 76 136 252 205 251 317 301 235 220 161 158 148 138 130 123 135 152 152 160 161 163 174 175 176 176 177 182 185 187 179 173 173 169 166 164 162 160 159 157 154 151 148 144 141 138 134 130 125 122 118 114 113 111 113 113 110 106 103 102 99 95 91 87 83 79 76 73 71 69 67 66 66 65
114 181 124 248 67 148 180 250 287 308 294 249 272 297 195 148 248 176 119 179 232 183 235 200 112 143 269 12 304 308 244 216 176 153 134 116 109 117 133 137 148 157 167 166 175 173 179 179 178 183 189 186 182 172 173 172 169 168 167 164 162 161 159 155 151 148 145 140 133 129 127 127 124 120 116 112 110 109 109 110 107 104 102 99 95 91 86 81 79 75 72 70 68 65 64 65 64
251 148 84 117 292 37 245 184 231 147 262 250 267 123 209 259 113 119 177 217 253 208 314 141 179 114 246 165 278 243 239 170 148 135 118 100 100 116 126 140 156 165 178 189 181 174 187 180 184 186 184 172 170 165 167 171 168 168 167 164 163 162 160 156 151 149 143 136 130 126 123 118 119 118 112 104 97 95 96 96 102 102 100 97 94 90 86 82 78 76 73 69 66 63 61 60 61
142 82 82 230 271 156 272 209 248 135 264 212 257 330 181 279 193 127 252 191 255 307 106 218 240 201 225 164 222 288 257 138 135 121 115 107 97 99 125 146 172 195 200 199 193 199 181 181 184 179 173 173 168 164 168 169 170 168 168 166 165 164 160 156 153 146 136 130 126 118 105 96 90 88 93 90 93 91 87 86 94 95 95 93 91 90 87 84 81 78 76 72 67 62 57 52 52
75 80 276 42 282 159 257 181 163 254 248 277 286 337 195 273 277 249 109 82 248 254 220 223 200 48 200 208 288 281 129 118 118 118 118 124 130 134 143 171 195 217 218 215 201 197 192 185 186 178 185 176 172 165 167 170 176 167 167 167 168 164 158 155 146 129 123 125 121 116 113 108 107 102 99 103 93 92 92 91 93 93 92 91 90 89 87 84 81 78 77 75 72 66 55 47 41
66 167 126 261 205 162 214 199 191 228 250 288 332 236 176 298 311 263 32 292 226 279 253 288 293 259 223 268 331 122 137 135 146 145 160 159 162 168 189 200 183 207 201 210 218 201 191 197 187 183 183 187 173 169 167 172 179 159 162 166 162 160 156 145 126 126 127 130 129 122 127 127 123 119 117 111 105 100 101 101 99 97 94 90 87 82 79 75 73 72 71 68 65 59 52 45 32
137 127 121 235 187 240 163 205 222 178 258 241 274 295 188 243 132 293 277 276 265 269 257 297 281 280 269 23 95 136 145 151 160 171 167 173 183 188 195 189 203 193 208 209 210 202 196 187 188 189 189 183 175 173 170 179 174 152 165 159 159 152 148 130 136 134 136 139 138 140 135 131 131 124 124 127 122 115 108 107 101 96 91 87 87 85 81 77 74 71 68 65 58 51 42 39 34
229 133 239 243 213 238 221 214 247 200 269 304 290 297 161 249 169 308 222 257 272 243 244 276 247 253 239 180 158 160 167 169 179 177 184 190 192 193 190 194 203 211 210 202 198 191 193 195 194 190 187 182 177 177 173 180 171 161 166 168 158 150 139 142 144 145 146 148 150 147 142 140 134 132 122 112 102 97 91 88 91 90 89 84 77 66 72 76 72 67 68 59 48 45 46 38 37
253 122 212 230 215 210 257 210 240 257 209 248 250 348 310 270 222 157 234 309 254 244 216 211 225 232 240 184 183 175 176 180 190 196 195 200 204 207 203 199 196 202 202 170 176 200 200 197 187 193 186 183 180 177 174 181 174 167 175 175 161 155 150 149 155 155 158 157 156 150 149 138 130 121 119 112 108 105 95 89 81 79 79 78 82 82 72 67 65 61 52 55 49 52 48 34 33
116 211 221 207 129 228 250 231 219 216 194 226 283 317 263 308 301 224 213 234 269 204 225 216 228 232 219 181 196 180 185 187 195 197 202 201 199 205 209 221 235 224 166 187 205 199 200 197 191 188 185 190 188 178 180 176 163 180 183 181 166 165 160 162 163 166 167 168 163 155 140 129 127 122 119 118 112 110 105 102 95 92 81 84 74 90 80 76 71 75 83 79 68 67 63 50 37
242 265 251 230 214 239 264 216 202 176 256 243 295 251 331 249 268 224 191 226 256 190 207 207 221 229 221 166 154 186 192 197 197 203 203 206 212 215 212 209 200 203 199 211 199 203 196 198 194 184 192 189 193 181 173 173 182 186 182 179 168 177 168 166 175 173 175 170 168 161 145 144 137 135 134 131 127 120 116 116 111 103 107 105 95 104 98 93 106 104 100 97 89 76 65 58 51
223 258 216 275 200 231 256 265 275 266 244 257 219 349 293 279 293 141 216 248 248 265 241 234 231 247 123 152 180 188 194 196 203 206 201 203 202 206 204 202 207 207 211 216 201 197 194 199 193 188 194 189 190 183 179 182 184 182 187 182 183 175 167 178 179 179 169 174 173 168 149 149 150 150 150 144 145 131 135 130 123 117 124 136 135 129 129 131 131 128 117 93 85 74 72 57 55
208 265 223 267 241 243 260 261 276 266 259 259 309 287 263 240 250 9 272 265 267 247 237 247 238 171 178 185 193 202 204 211 216 215 218 226 222 222 222 228 211 200 216 210 203 199 202 193 189 196 194 193 189 181 188 185 183 186 187 187 186 178 179 181 178 168 173 175 175 169 157 151 154 155 156 155 145 145 140 140 142 145 142 153 145 156 150 148 142 144 123 110 96 80 64 50 42
209 235 234 272 261 278 267 292 250 239 267 182 263 261 266 263 278 264 259 270 278 252 244 238 224 194 196 208 203 199 206 209 215 211 214 214 216 214 219 212 207 209 215 204 200 208 195 186 193 198 195 191 186 180 191 185 187 189 193 191 184 179 185 177 169 177 176 170 178 175 170 157 168 166 160 157 156 155 152 149 149 157 159 165 159 157 172 153 147 139 123 110 101 92 75 55 56
166 226 235 256 268 297 276 220 268 186 227 173 206 265 271 327 149 278 271 242 244 308 230 269 206 220 218 217 213 211 208 216 211 213 218 221 222 218 220 211 212 219 202 210 207 204 193 186 199 197 194 189 182 190 189 193 185 194 192 186 180 185 176 169 177 176 174 182 178 173 169 163 161 162 164 165 160 156 156 156 162 161 163 178 171 161 167 154 146 135 134 124 112 100 85 73 76
267 245 302 285 290 267 261 249 264 177 278 198 205 246 270 297 186 244 267 203 36 278 278 265 230 231 228 224 218 215 218 228 220 189 215 206 216 214 213 208 216 214 201 213 206 191 188 199 197 194 192 186 185 192 190 192 193 193 189 183 187 182 169 177 177 177 182 182 175 174 170 167 162 167 168 172 166 161 162 163 163 164 177 177 171 161 153 150 134 125 114 106 104 100 95 73 62
258 9 316 295 322 326 277 265 257 158 252 155 165 238 287 256 214 244 245 265 253 282 283 261 235 238 237 230 227 220 222 225 200 210 222 217 217 210 215 212 210 206 215 211 194 184 199 196 193 195 188 188 190 192 192 194 190 189 186 191 185 175 176 175 181 184 182 180 176 176 174 171 171 169 176 176 171 166 162 162 167 177 175 172 166 157 140 132 114 105 94 105 88 86 77 47 44
340 40 123 317 316 311 289 122 18 152 252 141 138 279 199 256 252 247 261 263 278 288 269 269 248 240 239 231 229 235 237 222 215 219 224 221 219 213 220 218 211 208 208 195 181 200 199 192 193 186 189 192 195 193 190 191 191 189 190 189 183 175 179 180 187 183 179 179 177 178 175 177 173 173 170 176 171 167 168 171 170 174 176 171 157 149 136 135 119 109 116 95 78 75 70 45 38
265 264 77 250 336 268 277 79 141 209 210 171 146 249 264 261 269 263 260 249 217 245 256 264 268 250 240 232 228 233 240 218 222 224 227 225 222 218 222 220 209 209 197 193 197 205 187 191 184 190 190 194 191 194 193 194 188 187 187 187 185 181 179 184 184 180 182 182 175 179 179 178 176 176 177 172 176 173 171 172 178 178 170 164 152 149 132 120 119 124 133 97 81 69 70 57 56
298 1 259 333 212 271 291 304 199 248 299 187 127 259 248 251 265 273 260 252 185 232 253 260 263 266 252 237 234 238 242 232 237 239 234 230 223 222 218 219 206 201 203 203 205 186 191 191 188 191 188 193 194 194 193 190 187 187 186 186 181 180 180 187 186 186 184 176 179 178 182 180 178 179 177 175 174 179 176 177 179 170 170 153 145 140 129 128 123 106 90 130 101 70 75 47 44
343 201 270 266 231 268 348 292 189 227 211 256 180 244 282 286 250 271 293 244 203 242 258 262 262 262 268 258 245 245 259 261 243 238 234 229 228 223 220 219 204 206 204 201 197 190 194 190 189 190 189 193 194 192 189 188 183 186 186 185 183 180 185 189 187 179 178 182 182 180 182 183 181 181 180 179 174 177 177 175 177 174 165 152 146 144 133 140 132 117 81 76 112 121 90 81 49
269 148 229 203 249 281 270 305 283 221 183 214 231 244 243 257 271 284 296 213 208 238 257 260 262 263 260 270 268 256 248 252 248 243 237 223 229 222 221 215 211 208 206 203 198 191 194 190 191 193 193 192 190 188 187 185 185 180 181 179 179 184 190 190 182 173 187 187 179 187 182 184 183 182 180 178 177 177 175 173 172 173 163 150 142 139 141 135 130 130 116 73 96 105 81 62 22
235 215 247 273 248 229 254 313 267 57 187 222 280 252 264 267 276 277 275 288 258 250 255 261 262 265 266 261 263 264 257 250 249 242 240 228 226 225 217 215 212 207 205 202 198 198 192 189 189 194 189 186 186 184 181 177 169 167 157 164 175 185 189 189 176 185 190 183 190 186 182 186 184 183 180 177 173 173 172 174 175 176 164 152 141 137 140 140 134 124 124 105 71 81 102 86 49
235 219 242 232 260 241 212 237 260 276 278 267 228 256 264 263 267 270 269 269 268 267 261 264 264 261 263 261 261 260 259 259 256 250 238 235 223 216 211 208 208 204 202 196 197 193 192 186 189 191 189 182 177 171 169 172 167 174 172 164 182 197 190 186 192 195 183 191 191 184 186 188 183 182 181 178 174 173 173 176 177 175 168 155 150 149 157 160 151 130 129 121 110 79 52 50 18
292 205 223 252 256 275 258 260 264 194 326 258 264 265 265 267 263 267 268 275 280 274 269 263 261 263 259 258 255 255 255 253 259 261 245 230 225 214 206 196 202 196 197 190 192 195 192 191 183 191 187 178 174 174 178 175 176 173 184 193 196 188 193 191 193 195 192 195 187 187 187 187 181 180 181 175 181 175 176 171 171 179 172 165 164 167 161 153 148 141 132 114 116 86 33 0 15
251 269 269 266 237 271 254 271 266 268 190 272 209 271 271 269 267 267 274 257 264 269 272 270 263 256 259 261 262 259 254 263 267 270 259 229 224 210 195 194 182 187 202 191 195 196 195 190 189 190 177 181 184 183 181 182 184 184 183 190 189 189 187 188 196 196 196 189 186 188 188 184 182 184 181 182 178 177 172 176 180 178 173 170 160 145 147 145 138 136 139 79 37 118 80 347 332
247 236 261 289 260 258 279 263 270 260 195 278 269 263 266 264 262 264 261 260 248 255 259 264 269 269 262 259 258 262 265 261 262 258 260 241 211 200 192 197 197 200 195 196 200 193 192 190 195 183 184 183 188 183 178 188 188 190 188 186 185 186 197 196 192 183 172 184 192 190 184 184 183 185 183 184 181 184 181 176 183 176 174 160 148 153 153 149 156 158 162 136 105 54 93 6 359
218 236 253 247 263 305 284 206 333 338 193 293 275 281 278 269 259 252 249 256 251 243 257 263 259 258 257 255 255 259 264 265 260 257 258 246 188 197 198 201 204 200 200 204 197 195 192 196 190 186 187 186 183 185 186 186 183 177 170 140 164 151 171 163 154 144 174 178 198 190 190 186 184 186 185 186 186 187 182 184 173 176 175 174 163 157 162 161 161 165 153 144 133 112 81 10 2
197 217 233 260 256 241 236 270 344 305 276 240 297 288 277 239 247 241 251 241 255 252 258 264 264 255 249 256 262 253 254 259 264 269 263 241 192 204 202 206 189 198 203 200 195 193 194 195 191 187 184 185 184 182 181 169 151 134 122 95 103 92 81 139 149 183 190 196 187 193 199 182 185 188 185 189 188 187 185 182 179 178 172 174 165 160 168 172 172 170 164 153 157 143 156 145 300
245 219 204 235 245 269 270 283 343 353 316 315 23 327 293 184 203 219 229 253 249 245 245 255 258 258 255 257 257 256 252 253 259 266 268 246 216 213 213 205 199 208 209 207 195 196 191 191 187 184 181 182 184 181 174 167 172 166 159 159 168 179 182 178 192 198 192 193 201 179 167 189 188 189 188 189 191 183 185 185 180 173 175 172 174 168 155 149 168 172 182 165 152 162 140 139 130
258 261 207 234 247 251 265 279 357 281 241 318 31 155 293 162 205 223 229 236 244 262 235 247 254 255 254 252 258 266 259 260 258 262 270 262 238 209 212 206 207 208 218 194 190 194 193 187 184 182 181 181 179 177 174 172 174 179 182 184 183 184 192 204 204 198 190 193 169 180 188 184 191 188 190 189 189 187 183 182 180 181 176 172 162 155 169 179 174 174 167 163 166 147 134 132 157
264 234 173 207 221 223 238 229 201 252 279 280 170 149 251 298 282 198 209 220 232 245 252 252 251 256 254 253 262 268 266 257 254 256 257 251 240 211 217 211 206 215 197 176 192 190 189 185 179 181 180 180 180 175 178 179 179 181 185 191 193 197 200 200 192 192 179 167 180 185 182 191 189 192 187 190 188 185 182 180 180 178 176 177 170 178 178 171 158 165 170 167 154 161 156 145 158
225 277 155 191 203 211 180 189 209 225 25 302 177 82 293 261 262 118 161 206 250 245 246 247 251 253 257 270 268 261 261 261 250 256 258 250 238 230 225 211 213 202 185 192 191 187 183 178 177 177 181 180 180 179 181 185 185 184 186 188 196 206 202 200 172 165 169 172 182 184 187 189 189 193 191 187 187 186 182 181 179 180 180 179 179 173 173 171 174 166 167 166 170 168 159 150 144
268 112 78 71 69 68 131 128 152 310 356 257 172 171 232 275 293 92 28 143 235 238 236 243 250 264 272 266 266 269 270 265 256 242 254 263 238 234 220 218 197 203 195 186 177 169 174 171 176 178 185 182 180 182 184 187 188 184 191 196 199 198 193 173 162 175 177 174 188 187 188 184 190 189 193 190 187 187 183 181 183 186 185 177 176 179 171 174 175 178 178 170 164 162 162 155 160
124 79 68 7 35 27 19 65 86 22 259 259 170 195 172 271 293 165 142 197 209 233 287 278 274 265 262 263 262 269 274 274 267 276 255 256 250 245 214 211 209 185 178 170 169 171 170 174 176 181 186 181 182 185 185 189 190 191 197 197 198 197 190 176 172 182 179 179 194 191 188 190 182 193 185 193 192 185 187 185 187 188 178 177 178 175 182 180 180 177 170 165 168 165 167 157 138
139 215 127 25 322 13 28 342 33 199 272 219 186 182 184 229 287 306 235 276 259 204 222 241 249 254 260 267 266 264 269 269 284 300 280 275 288 277 214 223 195 181 164 175 174 169 172 174 176 183 185 188 185 187 189 192 193 199 202 199 200 200 186 187 191 191 187 190 191 187 183 175 192 188 189 193 195 190 187 189 185 177 182 182 186 182 178 180 173 165 168 173 173 167 156 156 152
112 85 97 200 268 28 313 26 304 194 236 270 221 165 311 239 249 284 293 273 271 236 218 228 244 261 267 269 267 268 271 281 282 273 290 284 242 235 215 217 197 187 189 178 177 175 174 177 180 182 192 187 188 186 192 193 195 202 202 202 204 197 195 197 198 196 190 192 188 183 179 192 181 186 198 195 199 189 187 184 183 187 188 189 182 177 181 174 170 172 174 175 172 173 173 167 166
133 165 162 128 263 247 253 263 250 295 282 256 162 167 242 280 291 210 249 253 249 248 232 238 240 246 254 259 282 299 297 292 287 249 216 232 240 253 233 215 212 220 196 182 180 180 180 181 185 189 193 186 186 189 194 194 202 203 200 201 200 194 201 200 201 201 193 193 187 191 190 190 190 198 191 199 191 183 191 194 189 191 189 182 180 180 175 176 174 176 176 177 180 175 164 171 169
196 145 159 187 183 160 237 190 243 242 249 328 270 121 233 94 240 237 224 292 326 269 244 243 251 261 281 304 298 290 290 284 295 63 217 242 287 283 253 225 218 206 200 190 190 190 181 186 188 193 187 191 189 192 191 202 207 206 203 203 199 198 202 200 203 200 192 192 195 194 196 194 197 199 195 194 174 186 192 187 190 190 186 182 178 177 177 177 178 174 180 180 171 169 170 165 170
211 163 69 57 229 135 225 221 235 267 284 333 208 213 212 233 131 270 244 262 273 264 269 336 286 283 282 286 280 274 275 284 298 350 341 306 273 260 237 226 213 203 205 202 196 193 193 196 193 193 193 188 190 189 199 202 204 200 206 206 207 203 203 202 204 201 202 196 193 194 197 196 199 189 192 181 189 185 188 190 187 191 184 181 182 181 178 178 178 176 175 175 177 172 170 174 175
222 114 200 219 90 154 246 266 261 51 41 259 217 296 269 315 282 268 270 267 266 294 297 287 281 267 272 266 269 278 286 296 325 343 327 310 302 272 241 228 208 195 199 214 207 196 196 190 191 198 199 192 193 197 200 199 198 198 206 208 205 204 203 203 205 204 199 193 191 197 196 197 188 189 190 184 182 186 187 188 188 187 185 184 181 183 181 180 178 179 179 177 179 175 172 180 170
106 202 241 42 125 105 164 222 344 205 234 250 265 262 272 342 286 357 12 18 309 296 260 263 293 317 293 279 298 316 314 308 295 286 270 259 265 267 272 273 248 228 214 205 253 286 266 216 196 191 191 200 206 202 200 196 196 203 205 206 208 209 210 213 211 205 195 188 194 195 193 186 198 192 179 182 179 183 187 186 187 188 185 181 184 181 181 181 176 184 183 185 179 165 168 166 176
145 187 279 146 240 250 247 95 228 235 238 256 221 267 272 239 260 282 305 301 286 272 275 348 307 287 289 302 299 284 275 286 298 296 296 281 280 325 344 270 253 244 242 233 195 213 249 253 227 199 201 206 207 208 208 206 203 206 206 207 207 209 212 214 212 203 188 196 198 197 195 198 182 180 184 177 182 181 183 187 186 184 181 184 181 182 180 180 182 181 181 182 173 171 173 176 176
101 14 309 298 82 231 146 199 207 210 256 248 246 228 259 251 208 239 236 239 250 277 314 304 295 286 292 290 283 284 301 300 298 302 302 317 322 280 246 230 232 228 222 220 214 192 214 224 238 230 216 205 203 207 205 207 207 207 209 206 208 209 210 209 205 199 199 204 204 198 196 190 195 182 183 182 181 183 184 183 185 182 182 183 183 182 180 181 181 187 180 180 180 175 177 178 175
232 242 277 310 212 228 105 308 182 221 255 239 265 249 240 255 204 201 229 230 222 204 254 272 268 276 280 273 279 310 315 311 312 311 311 311 299 267 245 249 243 261 273 249 237 240 235 209 223 226 221 206 206 211 204 214 207 215 214 211 210 205 208 203 201 204 207 208 205 203 200 198 168 186 183 185 185 187 184 184 182 183 183 184 183 181 181 178 182 185 185 184 176 181 178 178 172
163 189 229 227 239 275 260 258 177 222 233 250 252 255 249 275 276 204 219 218 188 203 219 280 295 304 301 285 294 294 311 308 317 309 290 280 250 243 262 263 224 180 222 212 206 203 219 222 223 220 229 227 216 210 209 211 206 211 211 221 221 215 207 198 203 203 207 206 205 204 201 183 192 190 181 186 187 186 186 182 181 183 183 186 187 185 181 179 183 185 185 182 180 181 181 179 177